Strathmore
DateTemperatureDew Point
05/06 - 10:30 AM70.7°52.1°
05/06 - 10:15 AM72.0°52.8°
05/06 - 10:00 AM71.0°53.1°
05/06 - 09:45 AM69.3°52.8°
05/06 - 09:30 AM67.8°52.2°
05/06 - 09:15 AM66.8°52.3°
05/06 - 09:00 AM65.9°52.2°
05/06 - 08:45 AM65.0°52.2°
05/06 - 08:30 AM63.3°51.6°
05/06 - 08:15 AM62.1°51.0°
05/06 - 08:00 AM60.5°51.8°
05/06 - 07:45 AM58.7°52.3°
05/06 - 07:30 AM56.2°54.7°
05/06 - 07:15 AM53.7°53.6°
05/06 - 07:00 AM52.7°52.7°
05/06 - 06:45 AM51.2°51.2°
05/06 - 06:30 AM49.1°49.1°
05/06 - 06:15 AM47.8°47.7°
05/06 - 06:00 AM47.1°47.1°
05/06 - 05:45 AM47.1°47.1°
05/06 - 05:30 AM47.4°47.4°
05/06 - 05:15 AM47.8°47.8°
05/06 - 05:00 AM47.6°47.6°
05/06 - 04:45 AM47.7°47.7°
05/06 - 04:30 AM48.2°48.2°
05/06 - 04:15 AM48.6°48.6°
05/06 - 04:00 AM49.3°49.3°
05/06 - 03:45 AM49.7°49.7°
05/06 - 03:30 AM49.9°49.9°
05/06 - 03:15 AM49.3°49.3°
05/06 - 03:00 AM49.1°49.1°
05/06 - 02:45 AM49.2°49.1°
05/06 - 02:30 AM49.6°49.5°
05/06 - 02:15 AM49.7°49.6°
05/06 - 02:00 AM49.4°49.3°
05/06 - 01:45 AM49.6°49.4°
05/06 - 01:30 AM50.0°49.7°
05/06 - 01:15 AM50.1°49.7°
05/06 - 01:00 AM50.3°49.8°
05/06 - 12:45 AM50.5°50.0°
05/06 - 12:30 AM50.7°50.1°
05/06 - 12:15 AM50.8°50.1°
05/06 - 12:00 AM51.1°50.2°
05/05 - 11:45 PM51.5°50.3°
05/05 - 11:30 PM51.9°50.5°
05/05 - 11:15 PM52.4°50.8°
05/05 - 11:00 PM52.6°51.1°
05/05 - 10:45 PM53.4°52.0°
05/05 - 10:30 PM53.9°52.3°
05/05 - 10:15 PM54.4°52.2°
05/05 - 10:00 PM55.6°53.1°
05/05 - 09:45 PM56.8°53.6°
05/05 - 09:30 PM58.2°54.2°
05/05 - 09:15 PM59.4°54.0°
05/05 - 09:00 PM60.4°54.1°
05/05 - 08:45 PM61.3°54.2°
05/05 - 08:30 PM62.0°53.4°
05/05 - 08:15 PM62.8°51.8°
05/05 - 08:00 PM63.5°50.1°
05/05 - 07:45 PM64.3°48.6°
05/05 - 07:30 PM65.0°48.0°
05/05 - 07:15 PM65.4°48.1°
05/05 - 07:00 PM65.9°48.4°
05/05 - 06:45 PM66.5°48.5°
05/05 - 06:30 PM66.7°48.3°
05/05 - 06:15 PM66.9°48.5°
05/05 - 06:00 PM67.3°48.8°
05/05 - 05:45 PM68.1°49.0°
05/05 - 05:30 PM68.8°49.7°
05/05 - 05:15 PM68.9°49.4°
05/05 - 05:00 PM69.1°49.2°
05/05 - 04:45 PM68.7°48.5°
05/05 - 04:30 PM70.0°48.4°
05/05 - 04:15 PM73.4°49.1°
05/05 - 04:00 PM72.3°48.7°
05/05 - 03:45 PM70.2°48.8°
05/05 - 03:30 PM69.6°48.8°
05/05 - 03:15 PM69.7°48.8°
05/05 - 03:00 PM70.4°50.7°
05/05 - 02:45 PM69.4°50.9°
05/05 - 02:30 PM71.7°52.0°
05/05 - 02:15 PM70.7°51.8°
05/05 - 02:00 PM69.0°51.8°
05/05 - 01:45 PM68.2°51.9°
05/05 - 01:30 PM67.6°51.8°
05/05 - 01:15 PM69.2°52.7°
05/05 - 01:00 PM69.0°53.3°
05/05 - 12:45 PM68.3°53.3°
05/05 - 12:30 PM66.7°53.3°
05/05 - 12:15 PM65.4°53.2°
05/05 - 12:00 PM65.1°53.3°
05/05 - 11:45 AM63.9°53.0°
05/05 - 11:30 AM63.2°52.8°
05/05 - 11:15 AM63.5°53.1°
05/05 - 11:00 AM64.1°53.5°
05/05 - 10:45 AM63.9°53.8°
05/05 - 10:30 AM63.0°53.8°
05/05 - 10:15 AM62.3°53.6°
05/05 - 10:00 AM62.2°53.5°
05/05 - 09:45 AM62.3°53.9°
05/05 - 09:30 AM59.7°53.7°
05/05 - 09:15 AM58.8°53.6°
05/05 - 09:00 AM58.3°53.5°
05/05 - 08:45 AM57.9°53.3°
05/05 - 08:30 AM57.4°53.3°
05/05 - 08:15 AM56.8°53.1°
05/05 - 08:00 AM56.2°52.2°
05/05 - 07:45 AM56.1°52.2°
05/05 - 07:30 AM55.8°51.9°
05/05 - 07:15 AM55.7°51.8°
05/05 - 07:00 AM55.5°52.0°
05/05 - 06:45 AM55.4°52.2°
05/05 - 06:30 AM55.1°52.0°
05/05 - 06:15 AM55.0°52.0°
05/05 - 06:00 AM54.9°51.7°
05/05 - 05:45 AM55.0°51.6°
05/05 - 05:30 AM55.1°51.7°
05/05 - 05:15 AM55.3°51.7°
05/05 - 05:00 AM55.3°51.6°
05/05 - 04:45 AM55.2°52.1°
05/05 - 04:30 AM55.2°52.3°
05/05 - 04:15 AM54.9°52.5°
05/05 - 04:00 AM54.8°52.5°
05/05 - 03:45 AM54.9°52.5°
05/05 - 03:30 AM55.0°52.5°
05/05 - 03:15 AM55.2°52.4°
05/05 - 03:00 AM55.3°52.5°
05/05 - 02:45 AM55.4°52.4°
05/05 - 02:30 AM55.5°52.7°
05/05 - 02:15 AM55.6°52.8°
05/05 - 02:00 AM56.0°52.3°
05/05 - 01:45 AM56.4°51.8°
05/05 - 01:30 AM56.8°51.4°
05/05 - 01:15 AM57.0°51.5°
05/05 - 01:00 AM56.9°51.4°
05/05 - 12:45 AM56.9°51.5°
05/05 - 12:30 AM57.0°51.5°
05/05 - 12:15 AM57.1°51.2°
05/05 - 12:00 AM57.3°51.1°
05/04 - 11:45 PM57.5°50.8°
05/04 - 11:30 PM57.6°50.6°
05/04 - 11:15 PM57.6°50.4°
05/04 - 11:00 PM57.7°50.2°
05/04 - 10:45 PM57.9°50.1°
05/04 - 10:30 PM58.0°49.8°
05/04 - 10:15 PM58.2°49.8°
05/04 - 10:00 PM58.4°49.4°
05/04 - 09:45 PM58.7°49.0°
05/04 - 09:30 PM59.0°48.8°
05/04 - 09:15 PM59.2°49.3°
05/04 - 09:00 PM59.4°49.3°
05/04 - 08:45 PM59.3°49.9°
05/04 - 08:30 PM59.1°50.3°
05/04 - 08:15 PM58.6°51.4°
05/04 - 08:00 PM59.1°52.3°
05/04 - 07:45 PM59.8°51.9°
05/04 - 07:30 PM60.9°51.9°
05/04 - 07:15 PM61.9°49.4°
05/04 - 07:00 PM62.7°49.2°
05/04 - 06:45 PM63.1°48.5°
05/04 - 06:30 PM63.5°47.6°
05/04 - 06:15 PM64.0°47.2°
05/04 - 06:00 PM64.6°46.8°
05/04 - 05:45 PM65.0°47.4°
05/04 - 05:30 PM65.1°47.2°
05/04 - 05:15 PM65.2°47.9°
05/04 - 05:00 PM64.8°47.3°
05/04 - 04:45 PM64.4°47.6°
05/04 - 04:30 PM64.8°48.9°
05/04 - 04:15 PM64.5°48.1°
05/04 - 04:00 PM64.7°49.3°
05/04 - 03:45 PM64.3°49.4°
05/04 - 03:30 PM63.8°49.2°
05/04 - 03:15 PM64.1°49.3°
05/04 - 03:00 PM63.5°49.3°
05/04 - 02:45 PM62.6°48.8°
05/04 - 02:30 PM62.7°49.4°
05/04 - 02:15 PM62.8°49.2°
05/04 - 02:00 PM62.5°49.4°
05/04 - 01:45 PM61.6°49.1°
05/04 - 01:30 PM61.2°49.3°
05/04 - 01:15 PM60.8°48.7°
05/04 - 01:00 PM60.6°49.1°
05/04 - 12:45 PM59.9°49.4°
05/04 - 12:30 PM60.0°49.8°
05/04 - 12:15 PM59.9°49.9°
05/04 - 12:00 PM59.6°50.3°
05/04 - 11:45 AM58.8°50.1°
05/04 - 11:30 AM59.3°50.1°
05/04 - 11:15 AM59.5°49.9°